Location: *
(50.3194°N, 7.1067°E)
Time: 12:29:32
(UTC+00:00)

Spot 2 Rocket - Pass Details

Date: 22 September 2019
Orbit: 758 x 772 km, 98.6° (Epoch: 19 October)

Event Time Altitude Azimuth Distance (km) Brightness Sun altitude
Exits shadow 19:34:39 40° 98° (E) 1,118 3.9 -20.0°
Maximum altitude 19:35:38 45° 67° (ENE) 1,036 3.9 -20.1°
Drops below altitude 10° 19:40:25 10° 356° (N) 2,300 6.4 -20.8°
Sets 19:42:48 0° 350° (N) 3,230 7.3 -21.1°
